Weather in Artyomovsky

Russia / Sverdlovsk Oblast     57°20′18″N   61°53′40″E
temp.,
°C
wind,
m/s
gust,
m/s
humid.,
%
clouds,
%
prec.,
mm/h
press.,
hPa
HPBL,
m
26 january, tue
tue2623:00−2wsw5158690 0.3 1027583
02:00−1w5148872 0.0 1026654
05:00−1w5138986 0.0 1026638
08:00−2w5138794 0.0 1026533
11:00−3w5138872 0.0 1026461
14:00−2w4118741 0.0 1027560
17:00−4wsw4118870 0.0 1026533
20:00−5wsw41389100 0.0 1026631
27 january, wed
wed2723:00−5wsw3129099 0.0 1026460
02:00−5wsw4128990 0.0 1025553
05:00−6w4129094 0.0 1027591
08:00−7wsw389383 0.0 1027161
11:00−6wsw4109089 0.0 1027595
14:00−4wsw498898 0.0 1028669
17:00−5wsw399096 0.0 1027604
20:00−7sw399274 0.0 1027218
28 january, thu
thu2823:00−6sw3109365 0.0 1025302
02:00−4sw41388100 0.0 1024585
05:00−3sw51482100 0.0 1022650
08:00−2sw51580100 0.0 1021714
11:000sw51678100 0.0 1020821
14:00+1wsw51576100 0.0 1019834
17:000wsw41379100 0.0 1019756
20:00−2w41383100 0.0 1020677
29 january, fri
fri2923:00−4w31087100 0.0 1021509
02:00−5w3890100 0.0 1021374
05:00−6wsw2593100 0.0 1022270
08:00−8wsw2294100 0.0 102329
11:00−7nnw1194100 0.0 102443
14:00−5ene2394100 0.1 1025314
17:00−6ne3695100 0.2 1026369
20:00−13ne4895100 0.1 1027304
30 january, sat
sat3023:00−15ne5995100 0.4 1027340
02:00−17ene51095100 0.2 1026359
05:00−18ene4996100 0.3 1025364
08:00−18ene5996100 0.1 1023371
11:00−17ne3795100 0.3 1022338
14:00−16ne3695100 0.1 1021301
17:00−18nne3697100 0.3 1021245
20:00−20nne3797100 0.2 1022246